www.pogodaiklimat.ru

Погода и климат >> Архив погоды >> Буркина-Фасо >> Ouahigouya


ПОГОДА в Ouahigouya

  • Прогноз погоды в Ouahigouya
  • Монитор погоды в Ouahigouya
  • Климат города

АРХИВ ПОГОДЫ в Ouahigouya

Время (UTC), дата Ветер
(напр.,м/с)
 
Видим.   Явления Облачность Т
(С)
Тd
(С)
f
(%)
Тe
(С)
Тes
(С)
Комфортность P
(гПа)
Po
(гПа)
Тmin
(С)
Tmax
(С)
R
(мм)
R24
(мм)
S
(см)
18 17.06 ЮВ 1 15 км 9/1 1200 м
[Cb cap Ac As]
+26.5 +19.7 66 +32 +32 очень
душно
1009.5 972.1 +30.8
21 17.06 штиль 0 10 км 9/0
[Ac As Ci sp]
+26.3 +19.0 64 +31 +31 душно 1010.2 972.7
03 18.06 ЮЗ 2 10 км 9/0
[Ac trans Ci sp]
+24.9 +20.4 76 +31 +31 очень
душно
1008.4 971.1
06 18.06 ЮЗ 2 15 км 9/0
[Ac trans Ci sp]
+25.0 +19.9 73 +31 +31 очень
душно
1008.4 970.9 +24.7
09 18.06 ЮЗ 3 15 км 9/0
[Ci sp]
+29.0 +19.2 55 +34 +42 очень
душно
1009.4 972.1
12 18.06 З 3 15 км 9/0
[Ci sp]
+34.0 +18.2 39 +38 +53 опасность
солнечного
удара
1008.1 971.1
15 18.06 З 2 15 км 9/0
[Ci sp]
+36.1 +17.9 34 +40 +50 очень
душно
1006.2 969.4
18 18.06 ЮЗ 2 15 км 9/0
[Ci sp]
+35.4 +17.9 36 +39 +40 очень
душно
1006.5 969.6 +37.0
00 19.06 Ю 3 10 км 9/0
[Ci sp]
+30.0 +21.9 62 +39 +39 очень
душно
1008.1 971.3
03 19.06 ЮЗ 3 10 км 9/0
[Ci sp]
+28.6 +21.9 67 +37 +37 очень
душно
1006.9 970.2
06 19.06 ЮЗ 1 15 км 9/0
[Ci sp]
+27.7 +22.3 72 +36 +36 очень
душно
1007.2 970.4 +27.7
09 19.06 ЮЗ 3 15 км 9/0
[Ci sp]
+30.1 +22.8 65 +40 +47 очень
душно
1008.6 971.8
12 19.06 Ю 2 10 км 9/0
[Ci sp]
+33.8 +21.9 50 +42 +60 опасность
перегрева
1006.8 970.1
18 19.06 Ю 2 15 км 9/0
[Ci sp]
+34.9 +21.5 46 +43 +43 опасность
перегрева
1004.7 968.0 +36.9
21 19.06 Ю 2 10 км 9/0
[Ci sp]
+32.9 +21.5 51 +41 +41 опасность
перегрева
1006.3 969.6
00 20.06 ЮЗ 2 10 км 9/0
[Ci sp]
+31.5 +22.6 59 +41 +41 опасность
перегрева
1007.3 970.6
03 20.06 Ю 3 10 км 9/0
[Ci sp]
+30.1 +22.8 65 +40 +40 очень
душно
1006.6 970.0
06 20.06 ЮЗ 3 10 км 9/1 600 м
[Sc Ci sp]
+29.1 +23.3 71 +39 +39 очень
душно
1007.6 970.9 +29.0
12 20.06 ЮЗ 3 15 км 9/6 600 м
[Sc Ac As Ci sp]
+33.5 +22.5 53 +43 +47 опасность
перегрева
1008.5 971.8
18 20.06 З 2 15 км в посл. час дождь {гроза} 9/0
[Ac As Ci sp]
+24.2 +22.4 90 +32 +32 очень
душно
1009.3 971.9 +34.0 35
21 20.06 С 1 10 км 9/0
[Ac As Ci sp]
+23.8 +21.9 89 +31 +31 очень
душно
1010.6 973.2
00 21.06 ЮВ 3 10 км гроза без осадков 10/1 1200 м
[Cb cap Ac As]
+24.4 +23.0 92 +32 +32 очень
душно
1011.2 974.0
03 21.06 ЮВ 4 10 км в посл. час гроза {дождь} 10/0
[Ac As]
+23.8 +22.5 92 +31 +31 очень
душно
1010.8 973.0
06 21.06 ЮВ 2 15 км {гроза, дождь} 9/6 600 м
[Sc Ac As Ci sp]
+24.0 +21.9 88 +31 +31 очень
душно
1011.8 974.0 +23.5 38
09 21.06 ЮВ 2 15 км 9/5 600 м
[Sc Ac trans Ci sp]
+24.3 +23.0 92 +32 +35 очень
душно
1013.3 975.4
12 21.06 ЮЗ 2 15 км в посл. час дождь 9/6 600 м
[Cu Sc Ac trans Ci sp]
+26.5 +22.9 81 +35 +41 очень
душно
1013.0 975.3
15 21.06 ЮЗ 2 15 км 9/5 600 м
[Cu Sc Ac trans Ci sp]
+30.0 +22.7 65 +40 +43 очень
душно
1010.3 972.9
18 21.06 ЮЗ 1 15 км 9/3 600 м
[Sc Ci sp]
+29.5 +21.8 63 +38 +38 очень
душно
1010.0 972.6 +30.6 0.4
21 21.06 ЮЗ 1 10 км 9/0
[Ci sp]
+27.7 +23.3 77 +37 +37 очень
душно
1011.9 974.3
03 22.06 ЮЗ 1 10 км 9/0
[Ci sp]
+25.5 +23.3 88 +34 +34 очень
душно
1011.8 974.4
06 22.06 штиль 0 10 км 9/0
[Ci sp]
+24.8 +22.2 85 +32 +32 очень
душно
1012.5 975.0 +23.6 0.4
09 22.06 ЮЗ 1 15 км 9/0
[Ci sp]
+28.0 +21.7 69 +36 +46 очень
душно
1013.9 976.5
12 22.06 ЮЗ 1 15 км 9/4 600 м
[Sc Ac As Ci sp]
+31.1 +20.7 54 +38 +47 очень
душно
1012.1 974.8
15 22.06 З 3 15 км 9/1 600 м
[Sc Ac As Ci sp]
+33.5 +20.7 47 +40 +46 очень
душно
1009.3 972.2
18 22.06 СЗ 1 15 км 9/0
[Ci sp]
+33.3 +19.7 45 +39 +40 очень
душно
1008.9 971.8 +34.4
21 22.06 ЮЗ 1 10 км 9/0
[Ci sp]
+31.1 +21.5 57 +39 +39 очень
душно
1009.8 972.7
00 23.06 ЮЗ 3 10 км 9/0
[Ci sp]
+28.6 +22.8 71 +38 +38 очень
душно
1009.6 972.5
03 23.06 ЮЗ 3 10 км 9/0
[Ci sp]
+28.0 +22.4 72 +37 +37 очень
душно
1008.4 971.5
06 23.06 З 3 15 км 9/0
[Ci sp]
+27.5 +22.4 74 +36 +36 очень
душно
1008.8 971.8 +27.5
09 23.06 З 4 15 км 9/0
[Ci sp]
+31.0 +22.9 62 +41 +47 опасность
перегрева
1009.0 972.1
12 23.06 СЗ 4 15 км 9/0
[Ci sp]
+36.0 +20.1 40 +42 +54 опасность
перегрева
1007.5 970.8
15 23.06 С 4 8000 м пыль 9/0
[Ci sp]
+39.4 +17.6 28 +42 +49 опасность
перегрева
1004.3 967.9
18 23.06 С 2 3000 м пыль 9/0
[Ci sp]
+37.7 +15.7 27 +39 +40 очень
душно
1003.8 967.3 +39.7
21 23.06 С 2 10 км 9/0
[Ci sp]
+35.7 +16.1 31 +38 +38 очень
душно
1004.3 967.8
00 24.06 СВ 2 10 км осадки на расстоянии 9/1 1200 м
[Cb cap Ci sp]
+32.7 +18.0 42 +37 +37 очень
душно
1004.7 968.4
03 24.06 штиль 0 10 км 9/0
[Ci sp]
+32.0 +18.4 44 +37 +37 очень
душно
1003.7 968.5
06 24.06 Ю 3 10 км 9/1 600 м
[Sc Ac trans Ci sp]
+28.3 +23.0 73 +38 +38 очень
душно
1007.2 970.6 +28.2
12 24.06 ЮВ 6 15 км 10/0
[Ac As]
+31.5 +19.4 49 +37 +40 очень
душно
1009.3 972.5

 

Местоположение метеостанции Ouahigouya (Буркина-Фасо): широта 13.57 долгота -2.42 высота над уровнем моря 336 м.

В архиве по умолчанию представлена погода в Ouahigouya за последнюю неделю. Архивные данные за месяц целиком и за предыдущие месяцы, начиная с января 2011 года, Вы можете получить, выбрав интересующий диапазон дат из раскрывающегося списка и нажав кнопку "Ввод!".

Внимание! Время в таблицах - всемирное. Для получения местного времени необходимо прибавить поправку, которая в Ouahigouya равна 0 ч.

Смотрите также архив погоды в соседних городах и на ближайших метеорологических станциях:

Погода в Ouagadougou (Буркина-Фасо) (167 км)
Погода в Dedougou (Буркина-Фасо) (168 км)
Погода в Mopti (Мали) (210 км)
Погода в Boromo (Буркина-Фасо) (210 км)
Погода в San (Мали) (262 км)
Погода в Dori (Буркина-Фасо) (263 км)
Погода в Po (Буркина-Фасо) (302 км)
Погода в Navrongo (Гана) (330 км)
Погода в Bobo-Dioulasso (Буркина-Фасо) (337 км)
Погода в Fada N`Gourma (Буркина-Фасо) (348 км)

Пояснения к столбцам:

Ветер - указаны скорость ветра в м/с - средняя за 10 мин, порывы в срок и между сроками (в фигурных скобках) и направление, откуда дует ветер: С - северный, СВ - северо-восточный, В - восточный, ЮВ - юго-восточный, Ю - южный, ЮЗ - юго-западный, З - западный, СЗ - северо-западный.
Видимость - горизонтальная дальность видимости в метрах или километрах. При видимости от 1 до 10 км при отсутствии осадков обычно наблюдается дымка, при ухудшении видимости до 1 км и менее - туман. В сухую погоду видимость может ухудшаться дымом, пылью или мглою.
Явления - указаны атмосферные явления, наблюдавшиеся в срок или в последний час перед сроком; фигурными скобками обозначены явления, наблюдавшиеся между сроками (за 1-3 часа до срока); квадратными скобками обозначены град или гололедные отложения с указанием их диаметра в мм.
Облачность - указаны через наклонную черту общая и нижняя облачность в баллах и высота нижней границы облаков в метрах; квадратными скобками обозначены формы облаков: Ci - перистые, Cs - перисто-слоистые, Cc - перисто-кучевые, Ac - высококучевые, As - высокослоистые, Sc - слоисто-кучевые, Ns - слоисто-дождевые, Cu - кучевые, Cb - кучево-дождевые. Подробнее классификацию облаков см. в Атласе облаков (PDF).
T - Температура воздуха - температура, измеренная на высоте 2 м над землей.
Td - Температура точки росы - температура, при понижении до которой содержащийся в воздухе водяной пар достигнет насыщения.
f - Относительная влажность воздуха - влажноcть воздуха, измеренная на высоте 2 м над землей.
Te - Эффективная температура - температура, которую ощущает одетый по сезону человек в тени. Характеристика душности погоды. При расчете учитывается влияние влажности воздуха и скорости ветра на теплоощущения человека.
Tes - Эффективная температура на солнце - температура, которую ощущает человек, с поправкой на солнечный нагрев. Характеристика знойности погоды. Зависит от высоты солнца над горизонтом, облачности и скорости ветра. Ночью, в пасмурную погоду, а также при ветре 12 м/с и более поправка равна нулю.
P - Атмосферное давление - приведенное к уровню моря атмосферное давление.
Po - Атмосферное давление - измеренное на уровне метеостанции атмосферное давление.
Tmin - Минимальная температура - минимум температуры воздуха на высоте 2 м над землей.
Tmax - Максимальная температура - максимум температуры воздуха на высоте 2 м над землей.
R - Количество осадков - Количество выпавших осадков за период времени, мм. При наведении курсора мыши на число - период времени, за который выпало указанное количество осадков.
R24 - Количество осадков - Количество выпавших осадков за 24 часа, мм.
S - Снежный покров - Высота снежного покрова, см. При наведении курсора мыши на число - состояние снежного покрова и степень покрытия местности в баллах.